VOZ600 YBMK-YBBN

Flight info

Callsign VOZ600
Flight time 1h 4m
Altitude 39000
Route MK V153 MUNAR Y61 RUROX Y177 BN
Aircraft B737/M-SDE2E3FGHIRWXY/LB1

Departure

Time 2026-05-06 09:42
Airport Mackay Airport (YBMK)

Arrival

Time 2026-05-06 10:47
Airport Brisbane International Airport (YBBN)
Time Latitude Longitude Altitude Speed Heading
2026-05-06 09:18 -21.17518 149.18211 28 ft 0 kts 288°
2026-05-06 09:35 -21.17517 149.18210 21 ft 1 kts 297°
2026-05-06 09:36 -21.17496 149.18206 21 ft 7 kts 360°
2026-05-06 09:36 -21.17448 149.18243 23 ft 10 kts 56°
2026-05-06 09:36 -21.17410 149.18306 24 ft 10 kts 58°
2026-05-06 09:36 -21.17381 149.18355 24 ft 2 kts 59°
2026-05-06 09:37 -21.17381 149.18356 24 ft 0 kts 59°
2026-05-06 09:38 -21.17378 149.18361 27 ft 3 kts 59°
2026-05-06 09:39 -21.17354 149.18399 26 ft 10 kts 53°
2026-05-06 09:39 -21.17281 149.18396 27 ft 14 kts 328°
2026-05-06 09:39 -21.17174 149.18323 29 ft 21 kts 328°
2026-05-06 09:39 -21.17050 149.18241 27 ft 21 kts 328°
2026-05-06 09:40 -21.16927 149.18158 28 ft 21 kts 327°
2026-05-06 09:40 -21.16808 149.18077 25 ft 20 kts 327°
2026-05-06 09:40 -21.16618 149.17949 26 ft 19 kts 328°
2026-05-06 09:41 -21.16509 149.17875 22 ft 18 kts 327°
2026-05-06 09:41 -21.16381 149.17768 31 ft 17 kts 300°
2026-05-06 09:41 -21.16335 149.17740 26 ft 10 kts 23°
2026-05-06 09:41 -21.16367 149.17782 30 ft 0 kts 150°
2026-05-06 09:42 -21.16504 149.17873 22 ft 70 kts 148°
2026-05-06 09:42 -21.17192 149.18340 35 ft 159 kts 147°
2026-05-06 09:42 -21.18237 149.19033 745 ft 181 kts 147°
2026-05-06 09:43 -21.19294 149.19753 2075 ft 181 kts 148°
2026-05-06 09:43 -21.20410 149.20503 2888 ft 206 kts 148°
2026-05-06 09:43 -21.21749 149.21364 3344 ft 242 kts 148°
2026-05-06 09:43 -21.23230 149.22386 4262 ft 256 kts 148°
2026-05-06 09:44 -21.24902 149.23056 5516 ft 260 kts 166°
2026-05-06 09:44 -21.26705 149.23445 6683 ft 267 kts 168°
2026-05-06 09:44 -21.28553 149.23821 7750 ft 273 kts 168°
2026-05-06 09:44 -21.30446 149.24209 8824 ft 280 kts 168°
2026-05-06 09:45 -21.32358 149.24610 9916 ft 285 kts 169°
2026-05-06 09:45 -21.34345 149.25033 10645 ft 303 kts 169°
2026-05-06 09:45 -21.36513 149.25501 11072 ft 328 kts 169°
2026-05-06 09:45 -21.38800 149.25999 11835 ft 340 kts 169°
2026-05-06 09:46 -21.41161 149.26517 12663 ft 350 kts 170°
2026-05-06 09:46 -21.43585 149.27050 13455 ft 361 kts 170°
2026-05-06 09:46 -21.46081 149.27600 14198 ft 370 kts 171°
2026-05-06 09:46 -21.48593 149.28153 14995 ft 375 kts 171°
2026-05-06 09:47 -21.51139 149.28837 15871 ft 379 kts 165°
2026-05-06 09:47 -21.53651 149.29798 16738 ft 385 kts 162°
2026-05-06 09:47 -21.56160 149.30877 17552 ft 391 kts 161°
2026-05-06 09:47 -21.58703 149.32005 18347 ft 397 kts 161°
2026-05-06 09:48 -21.61242 149.33129 19054 ft 401 kts 161°
2026-05-06 09:48 -21.63837 149.34264 19819 ft 404 kts 161°
2026-05-06 09:48 -21.66454 149.35393 20606 ft 406 kts 162°
2026-05-06 09:48 -21.69097 149.36522 21350 ft 410 kts 162°
2026-05-06 09:49 -21.71772 149.37656 22076 ft 414 kts 162°
2026-05-06 09:49 -21.74465 149.38792 22789 ft 418 kts 162°
2026-05-06 09:49 -21.77192 149.39941 23497 ft 421 kts 162°
2026-05-06 09:49 -21.79907 149.41083 24079 ft 425 kts 162°
2026-05-06 09:50 -21.82679 149.42250 24655 ft 429 kts 163°
2026-05-06 09:50 -21.85467 149.43423 25242 ft 432 kts 163°
2026-05-06 09:50 -21.88286 149.44611 25832 ft 435 kts 163°
2026-05-06 09:50 -21.91120 149.45805 26402 ft 439 kts 164°
2026-05-06 09:51 -21.93985 149.47013 26933 ft 444 kts 165°
2026-05-06 09:51 -21.96873 149.48230 27483 ft 447 kts 165°
2026-05-06 09:51 -21.99746 149.49443 28039 ft 450 kts 165°
2026-05-06 09:51 -22.02681 149.50683 28589 ft 453 kts 166°
2026-05-06 09:52 -22.05628 149.51928 29116 ft 457 kts 166°
2026-05-06 09:52 -22.08605 149.53187 29636 ft 460 kts 166°
2026-05-06 09:52 -22.11603 149.54454 30144 ft 463 kts 166°
2026-05-06 09:52 -22.14620 149.55731 30537 ft 467 kts 166°
2026-05-06 09:53 -22.17664 149.57018 30860 ft 473 kts 166°
2026-05-06 09:53 -22.20751 149.58324 31193 ft 479 kts 166°
2026-05-06 09:53 -22.23867 149.59643 31513 ft 483 kts 167°
2026-05-06 09:53 -22.26969 149.60958 31835 ft 488 kts 166°
2026-05-06 09:54 -22.30144 149.62305 32145 ft 492 kts 166°
2026-05-06 09:54 -22.33350 149.63666 32436 ft 497 kts 166°
2026-05-06 09:54 -22.36596 149.65044 32719 ft 501 kts 166°
2026-05-06 09:54 -22.39864 149.66433 33004 ft 506 kts 166°
2026-05-06 09:55 -22.43155 149.67832 33333 ft 509 kts 166°
2026-05-06 09:55 -22.46416 149.69221 33734 ft 509 kts 166°
2026-05-06 09:55 -22.49730 149.70634 34129 ft 511 kts 166°
2026-05-06 09:55 -22.53048 149.72049 34466 ft 512 kts 167°
2026-05-06 09:56 -22.56369 149.73466 34852 ft 511 kts 167°
2026-05-06 09:56 -22.59677 149.74878 35278 ft 510 kts 167°
2026-05-06 09:56 -22.62938 149.76270 35644 ft 509 kts 167°
2026-05-06 09:56 -22.66246 149.77681 35979 ft 509 kts 167°
2026-05-06 09:57 -22.69561 149.79095 36293 ft 510 kts 167°
2026-05-06 09:57 -22.72828 149.80489 36635 ft 509 kts 167°
2026-05-06 09:57 -22.76132 149.81901 36992 ft 509 kts 167°
2026-05-06 09:57 -22.79446 149.83317 37320 ft 509 kts 167°
2026-05-06 09:58 -22.82738 149.84725 37646 ft 509 kts 166°
2026-05-06 09:58 -22.86036 149.86137 37960 ft 509 kts 166°
2026-05-06 09:58 -22.89293 149.87531 38287 ft 508 kts 166°
2026-05-06 09:58 -22.92584 149.88941 38631 ft 507 kts 166°
2026-05-06 09:59 -22.95862 149.90347 38945 ft 505 kts 167°
2026-05-06 09:59 -22.99143 149.91754 39064 ft 508 kts 167°
2026-05-06 09:59 -23.05748 149.94583 39064 ft 509 kts 166°
2026-05-06 10:00 -23.12293 149.97401 39054 ft 502 kts 167°
2026-05-06 10:00 -23.18764 150.00185 39070 ft 502 kts 167°
2026-05-06 10:01 -23.25277 150.02986 39063 ft 502 kts 167°
2026-05-06 10:01 -23.31747 150.05772 39065 ft 502 kts 167°
2026-05-06 10:02 -23.38272 150.08586 39049 ft 503 kts 167°
2026-05-06 10:02 -23.44736 150.11378 39088 ft 502 kts 167°
2026-05-06 10:03 -23.51251 150.14194 39066 ft 503 kts 167°
2026-05-06 10:03 -23.57737 150.17001 39058 ft 504 kts 167°
2026-05-06 10:04 -23.64252 150.19824 39067 ft 503 kts 167°
2026-05-06 10:04 -23.70763 150.22648 39060 ft 503 kts 167°
2026-05-06 10:05 -23.77292 150.25483 39080 ft 504 kts 167°
2026-05-06 10:05 -23.83790 150.28306 39070 ft 504 kts 167°
2026-05-06 10:06 -23.90316 150.31146 39070 ft 504 kts 167°
2026-05-06 10:06 -23.96747 150.33948 39070 ft 504 kts 167°
2026-05-06 10:07 -24.03288 150.36800 39069 ft 504 kts 167°
2026-05-06 10:07 -24.09760 150.39625 39076 ft 504 kts 167°
2026-05-06 10:08 -24.16293 150.42480 39072 ft 504 kts 167°
2026-05-06 10:08 -24.22815 150.45334 39077 ft 504 kts 167°
2026-05-06 10:09 -24.29302 150.48175 39077 ft 504 kts 167°
2026-05-06 10:09 -24.35828 150.51037 39113 ft 504 kts 167°
2026-05-06 10:10 -24.42363 150.53906 39093 ft 505 kts 168°
2026-05-06 10:10 -24.48849 150.56798 39075 ft 509 kts 164°
2026-05-06 10:11 -24.55031 150.60854 39092 ft 521 kts 154°
2026-05-06 10:11 -24.61036 150.65358 39096 ft 522 kts 153°
2026-05-06 10:12 -24.67012 150.69832 39089 ft 521 kts 153°
2026-05-06 10:12 -24.73036 150.74268 39099 ft 521 kts 154°
2026-05-06 10:13 -24.79081 150.78689 39087 ft 521 kts 154°
2026-05-06 10:13 -24.85080 150.83080 39085 ft 520 kts 154°
2026-05-06 10:14 -24.91114 150.87507 39100 ft 520 kts 154°
2026-05-06 10:14 -24.97143 150.91938 39085 ft 520 kts 154°
2026-05-06 10:15 -25.03140 150.96350 39099 ft 521 kts 154°
2026-05-06 10:15 -25.09172 151.00794 39095 ft 521 kts 154°
2026-05-06 10:16 -25.15202 151.05242 39084 ft 521 kts 154°
2026-05-06 10:16 -25.21191 151.09665 39093 ft 520 kts 154°
2026-05-06 10:17 -25.27220 151.14123 39084 ft 520 kts 154°
2026-05-06 10:17 -25.33236 151.18577 39117 ft 520 kts 154°
2026-05-06 10:18 -25.39224 151.23014 39103 ft 520 kts 154°
2026-05-06 10:18 -25.45249 151.27485 39095 ft 520 kts 154°
2026-05-06 10:19 -25.51226 151.31926 39088 ft 520 kts 154°
2026-05-06 10:19 -25.57207 151.36376 39094 ft 519 kts 154°
2026-05-06 10:20 -25.63215 151.40852 39098 ft 519 kts 154°
2026-05-06 10:20 -25.69213 151.45325 39096 ft 519 kts 154°
2026-05-06 10:21 -25.75178 151.49861 39098 ft 523 kts 149°
2026-05-06 10:21 -25.80705 151.55147 39108 ft 528 kts 144°
2026-05-06 10:22 -25.86129 151.60701 39101 ft 529 kts 144°
2026-05-06 10:22 -25.91548 151.66195 39113 ft 528 kts 144°
2026-05-06 10:23 -25.94290 151.68936 38748 ft 532 kts 144°
2026-05-06 10:23 -25.97054 151.71685 38129 ft 531 kts 144°
2026-05-06 10:23 -25.99815 151.74429 37561 ft 530 kts 145°
2026-05-06 10:23 -26.02563 151.77160 36940 ft 529 kts 145°
2026-05-06 10:24 -26.05285 151.79868 36324 ft 529 kts 145°
2026-05-06 10:24 -26.08028 151.82600 35659 ft 529 kts 145°
2026-05-06 10:24 -26.10777 151.85339 34939 ft 531 kts 145°
2026-05-06 10:24 -26.13540 151.88095 34182 ft 533 kts 145°
2026-05-06 10:25 -26.16305 151.90855 33322 ft 535 kts 144°
2026-05-06 10:25 -26.19046 151.93596 32512 ft 535 kts 144°
2026-05-06 10:25 -26.21812 151.96363 31665 ft 535 kts 143°
2026-05-06 10:25 -26.24584 151.99141 30886 ft 532 kts 143°
2026-05-06 10:26 -26.27332 152.01898 30276 ft 526 kts 143°
2026-05-06 10:26 -26.29127 152.03699 29773 ft 522 kts 143°
2026-05-06 10:26 -26.32701 152.07288 28861 ft 512 kts 142°
2026-05-06 10:26 -26.34443 152.09038 28422 ft 507 kts 142°
2026-05-06 10:27 -26.37058 152.11664 27747 ft 500 kts 142°
2026-05-06 10:27 -26.39625 152.14242 27105 ft 493 kts 142°
2026-05-06 10:27 -26.42129 152.16758 26485 ft 487 kts 142°
2026-05-06 10:27 -26.44629 152.19271 25861 ft 482 kts 142°
2026-05-06 10:28 -26.47112 152.21769 25240 ft 476 kts 141°
2026-05-06 10:28 -26.49562 152.24236 24602 ft 472 kts 141°
2026-05-06 10:28 -26.51994 152.26686 23962 ft 468 kts 141°
2026-05-06 10:28 -26.54403 152.29114 23258 ft 464 kts 141°
2026-05-06 10:29 -26.56781 152.31514 22574 ft 458 kts 141°
2026-05-06 10:29 -26.59140 152.33895 21928 ft 452 kts 140°
2026-05-06 10:29 -26.61457 152.36235 21305 ft 446 kts 140°
2026-05-06 10:29 -26.63718 152.38521 20689 ft 441 kts 140°
2026-05-06 10:30 -26.65971 152.40826 20078 ft 436 kts 139°
2026-05-06 10:30 -26.68187 152.43116 19493 ft 430 kts 139°
2026-05-06 10:30 -26.70360 152.45371 18878 ft 420 kts 139°
2026-05-06 10:30 -26.72483 152.47573 18246 ft 410 kts 139°
2026-05-06 10:31 -26.74552 152.49719 17580 ft 399 kts 139°
2026-05-06 10:31 -26.76547 152.51785 16976 ft 389 kts 139°
2026-05-06 10:31 -26.78523 152.53831 16396 ft 383 kts 139°
2026-05-06 10:31 -26.80477 152.55855 15822 ft 380 kts 139°
2026-05-06 10:32 -26.82415 152.57862 15261 ft 377 kts 138°
2026-05-06 10:32 -26.84333 152.59850 14697 ft 374 kts 138°
2026-05-06 10:32 -26.86219 152.61806 14125 ft 372 kts 138°
2026-05-06 10:32 -26.88116 152.63774 13517 ft 369 kts 138°
2026-05-06 10:33 -26.89982 152.65702 13025 ft 362 kts 138°
2026-05-06 10:33 -26.91817 152.67596 12452 ft 358 kts 138°
2026-05-06 10:33 -26.93640 152.69477 11879 ft 355 kts 138°
2026-05-06 10:33 -26.95455 152.71353 11307 ft 352 kts 138°
2026-05-06 10:34 -26.97245 152.73202 10721 ft 349 kts 139°
2026-05-06 10:34 -26.99005 152.75008 10424 ft 337 kts 136°
2026-05-06 10:34 -27.00353 152.77085 10200 ft 325 kts 116°
2026-05-06 10:34 -27.01215 152.79338 10069 ft 311 kts 112°
2026-05-06 10:35 -27.02013 152.81545 9942 ft 296 kts 112°
2026-05-06 10:35 -27.02783 152.83675 9400 ft 298 kts 112°
2026-05-06 10:35 -27.03559 152.85802 9192 ft 289 kts 112°
2026-05-06 10:35 -27.04313 152.87849 8981 ft 280 kts 113°
2026-05-06 10:36 -27.05060 152.89864 8489 ft 281 kts 113°
2026-05-06 10:36 -27.05814 152.91891 8084 ft 280 kts 113°
2026-05-06 10:36 -27.06547 152.93863 7869 ft 273 kts 113°
2026-05-06 10:36 -27.07268 152.95811 7604 ft 268 kts 111°
2026-05-06 10:37 -27.07799 152.97811 7270 ft 267 kts 103°
2026-05-06 10:37 -27.08196 152.99846 6945 ft 265 kts 102°
2026-05-06 10:37 -27.08577 153.01858 6681 ft 261 kts 102°
2026-05-06 10:37 -27.08958 153.03809 6397 ft 258 kts 103°
2026-05-06 10:38 -27.09352 153.05762 6069 ft 256 kts 103°
2026-05-06 10:38 -27.09751 153.07713 5761 ft 254 kts 103°
2026-05-06 10:38 -27.10142 153.09617 5583 ft 246 kts 104°
2026-05-06 10:38 -27.10519 153.11487 5323 ft 243 kts 101°
2026-05-06 10:39 -27.10506 153.13354 5023 ft 243 kts 82°
2026-05-06 10:39 -27.10252 153.15190 4910 ft 230 kts 83°
2026-05-06 10:39 -27.10026 153.16930 4807 ft 219 kts 83°
2026-05-06 10:39 -27.09823 153.18602 4628 ft 214 kts 87°
2026-05-06 10:40 -27.09892 153.20252 4432 ft 209 kts 98°
2026-05-06 10:40 -27.10138 153.21848 4203 ft 204 kts 115°
2026-05-06 10:40 -27.10923 153.23106 3953 ft 198 kts 136°
2026-05-06 10:40 -27.12005 153.24078 3570 ft 200 kts 146°
2026-05-06 10:41 -27.13348 153.24460 3187 ft 203 kts 187°
2026-05-06 10:41 -27.14656 153.23937 3076 ft 203 kts 198°
2026-05-06 10:41 -27.15989 153.23370 3022 ft 204 kts 199°
2026-05-06 10:41 -27.17286 153.22727 3011 ft 201 kts 202°
2026-05-06 10:42 -27.18518 153.22047 3004 ft 200 kts 204°
2026-05-06 10:42 -27.19763 153.21337 3003 ft 200 kts 204°
2026-05-06 10:42 -27.20963 153.20646 2988 ft 188 kts 204°
2026-05-06 10:42 -27.22118 153.19981 2905 ft 188 kts 203°
2026-05-06 10:43 -27.23300 153.19303 2696 ft 190 kts 204°
2026-05-06 10:43 -27.24460 153.18634 2454 ft 185 kts 204°
2026-05-06 10:43 -27.25575 153.17992 2215 ft 178 kts 203°
2026-05-06 10:44 -27.27687 153.16777 1766 ft 163 kts 203°
2026-05-06 10:44 -27.28689 153.16202 1534 ft 158 kts 203°
2026-05-06 10:44 -27.29644 153.15652 1329 ft 150 kts 203°
2026-05-06 10:44 -27.30542 153.15135 1163 ft 139 kts 203°
2026-05-06 10:45 -27.31387 153.14650 975 ft 134 kts 202°
2026-05-06 10:45 -27.32220 153.14171 797 ft 135 kts 202°
2026-05-06 10:45 -27.33048 153.13696 628 ft 134 kts 203°
2026-05-06 10:45 -27.33881 153.13216 432 ft 133 kts 204°
2026-05-06 10:46 -27.34705 153.12744 240 ft 134 kts 205°
2026-05-06 10:46 -27.35535 153.12263 94 ft 134 kts 204°
2026-05-06 10:46 -27.36329 153.11811 20 ft 117 kts 203°
2026-05-06 10:46 -27.36895 153.11488 17 ft 62 kts 207°
2026-05-06 10:47 -27.37126 153.11360 17 ft 27 kts 200°
2026-05-06 10:47 -27.37304 153.11329 17 ft 25 kts 179°
2026-05-06 10:47 -27.37467 153.11341 16 ft 21 kts 171°
2026-05-06 10:47 -27.37523 153.11437 17 ft 15 kts 77°
2026-05-06 10:48 -27.37450 153.11496 18 ft 12 kts 26°
2026-05-06 10:48 -27.37377 153.11537 17 ft 12 kts 27°
2026-05-06 10:48 -27.37327 153.11597 17 ft 11 kts 98°
2026-05-06 10:48 -27.37356 153.11683 17 ft 14 kts 117°
2026-05-06 10:49 -27.37410 153.11800 17 ft 18 kts 117°
2026-05-06 10:49 -27.37466 153.11923 17 ft 17 kts 117°
2026-05-06 10:49 -27.37519 153.12040 17 ft 17 kts 117°
2026-05-06 10:49 -27.37571 153.12154 17 ft 16 kts 117°
2026-05-06 10:50 -27.37621 153.12263 17 ft 15 kts 117°
2026-05-06 10:50 -27.37670 153.12368 17 ft 15 kts 117°
2026-05-06 10:50 -27.37715 153.12469 17 ft 14 kts 116°
2026-05-06 10:50 -27.37759 153.12565 17 ft 13 kts 117°
2026-05-06 10:51 -27.37801 153.12657 17 ft 13 kts 117°
2026-05-06 10:51 -27.37841 153.12746 17 ft 13 kts 117°
2026-05-06 10:51 -27.37899 153.12810 17 ft 12 kts 174°
2026-05-06 10:51 -27.37984 153.12769 17 ft 16 kts 206°
2026-05-06 10:52 -27.38088 153.12710 17 ft 17 kts 208°
2026-05-06 10:52 -27.38191 153.12650 17 ft 16 kts 207°
2026-05-06 10:52 -27.38291 153.12593 17 ft 16 kts 207°
2026-05-06 10:52 -27.38387 153.12540 18 ft 15 kts 207°
2026-05-06 10:53 -27.38479 153.12486 17 ft 15 kts 207°
2026-05-06 10:53 -27.38567 153.12435 17 ft 14 kts 207°
2026-05-06 10:53 -27.38652 153.12386 17 ft 13 kts 206°
2026-05-06 10:53 -27.38732 153.12341 18 ft 13 kts 206°
2026-05-06 10:54 -27.38811 153.12297 17 ft 13 kts 206°
2026-05-06 10:54 -27.38883 153.12245 17 ft 12 kts 236°
2026-05-06 10:54 -27.38877 153.12155 19 ft 12 kts 286°
2026-05-06 10:54 -27.38866 153.12065 18 ft 12 kts 296°
2026-05-06 10:55 -27.38843 153.12014 17 ft 0 kts 297°